Location: Central Coast
(33.3208°S, 151.2336°E)
Time: 02:24:19
(UTC+10:00)

Vanguard 3 - All Passes

Search period start: 19 July 2018 00:00
Search period end: 29 July 2018 00:00
Orbit: 508 x 3264 km, 33.3° (Epoch: 17 July)

Date Brightness Start Highest point End Pass type
(mag) Time Alt. Az. Time Alt. Az. Time Alt. Az.
19 Jul - 03:59:33 10° N 04:04:10 23° NE 04:10:53 10° E visible
19 Jul - 06:08:03 10° WNW 06:15:28 71° NNE 06:29:11 10° E visible
19 Jul - 08:19:15 10° W 08:29:47 90° S 08:47:54 10° E daylight
19 Jul - 10:31:45 10° W 10:45:52 74° NNW 11:05:53 10° ENE daylight
19 Jul - 12:46:09 10° W 13:02:04 43° NW 13:19:47 10° NNE daylight
19 Jul - 15:07:50 10° WNW 15:16:52 15° NW 15:25:40 10° NNW daylight
20 Jul - 04:55:27 10° NW 05:01:23 48° NNE 05:11:45 10° E visible
20 Jul - 07:05:43 10° W 07:14:12 88° N 07:29:50 10° E daylight
20 Jul - 09:17:29 10° W 09:29:22 84° NNW 09:48:35 10° ENE daylight
20 Jul - 11:30:34 10° W 11:45:32 57° NNW 12:04:48 10° NE daylight
20 Jul - 13:47:16 10° W 14:01:06 26° NW 14:15:28 10° N daylight
21 Jul - 03:43:41 10° NNW 03:48:03 25° NE 03:54:31 10° E visible
21 Jul - 05:52:34 10° WNW 05:59:25 75° NNE 06:12:08 10° E visible
21 Jul - 08:03:41 10° W 08:13:26 90° N 08:30:41 10° E daylight
21 Jul - 10:15:53 10° W 10:29:01 70° NNW 10:48:33 10° ENE daylight
21 Jul - 12:30:10 10° W 12:44:56 39° NW 13:02:13 10° NNE daylight
21 Jul - 14:54:09 10° WNW 14:59:55 12° NW 15:05:41 10° NNW daylight
22 Jul - 04:39:54 10° NW 04:45:23 52° NNE 04:54:59 10° E visible
22 Jul - 06:50:16 10° W 06:58:07 89° N 07:12:42 10° E daylight
22 Jul - 09:01:49 10° W 09:12:50 81° NNW 09:31:18 10° ENE daylight
22 Jul - 11:14:40 10° W 11:28:33 51° NNW 11:47:18 10° NE daylight
22 Jul - 13:31:45 10° W 13:44:02 22° NW 13:57:17 10° N daylight
23 Jul - 03:27:54 10° NNW 03:32:04 27° NE 03:38:13 10° E visible
23 Jul - 05:37:09 10° WNW 05:43:27 79° NNE 05:55:10 10° E visible
23 Jul - 07:48:11 10° W 07:57:11 88° N 08:13:28 10° E daylight
23 Jul - 10:00:07 10° W 10:12:17 64° NNW 10:31:06 10° NE daylight
23 Jul - 12:14:24 10° W 12:27:54 34° NW 12:44:22 10° NNE daylight
24 Jul - 02:18:48 10° NE 02:19:09 10° NE 02:19:31 10° NE visible
24 Jul - 04:24:25 10° NW 04:29:31 57° NNE 04:38:19 10° E visible
24 Jul - 06:34:51 10° W 06:42:06 89° S 06:55:37 10° E daylight
24 Jul - 08:46:13 10° W 08:56:23 76° NNW 09:13:56 10° ENE daylight
24 Jul - 10:58:54 10° W 11:11:41 46° NNW 11:29:35 10° NE daylight
24 Jul - 13:16:44 10° WNW 13:27:07 18° NW 13:38:33 10° N daylight
25 Jul - 03:12:13 10° NNW 03:16:10 30° NE 03:21:59 10° E visible
25 Jul - 05:21:47 10° WNW 05:27:37 83° N 05:38:18 10° E visible
25 Jul - 07:32:43 10° W 07:41:00 86° N 07:56:16 10° ENE daylight
25 Jul - 09:44:27 10° W 09:55:39 58° NNW 10:13:31 10° NE daylight
25 Jul - 11:58:54 10° W 12:11:02 29° NW 12:26:11 10° NNE daylight
26 Jul - 02:01:33 10° NNE 02:03:13 12° NE 02:05:03 10° ENE night (unlit)
26 Jul - 04:08:59 10° WNW 04:13:44 62° NNE 04:21:45 10° E visible
26 Jul - 06:19:29 10° W 06:26:10 89° S 06:38:37 10° E visible
26 Jul - 08:30:40 10° W 08:40:02 70° NNW 08:56:31 10° ENE daylight
26 Jul - 10:43:19 10° W 10:54:58 40° NNW 11:11:40 10° NNE daylight
26 Jul - 13:02:30 10° WNW 13:10:21 14° NW 13:18:58 10° NNW daylight
27 Jul - 02:56:35 10° NW 03:00:23 34° NNE 03:05:50 10° E visible
27 Jul - 05:06:27 10° W 05:11:51 87° N 05:21:33 10° E visible
27 Jul - 07:17:16 10° W 07:24:55 82° NNW 07:39:04 10° ENE daylight
27 Jul - 09:28:54 10° W 09:39:09 51° NNW 09:55:48 10° NE daylight
27 Jul - 11:43:42 10° W 11:54:18 24° NW 12:07:40 10° N daylight
28 Jul - 01:45:09 10° N 01:47:21 14° NE 01:49:49 10° ENE night (unlit)
28 Jul - 03:53:36 10° WNW 03:58:01 68° NNE 04:05:18 10° E visible
28 Jul - 06:04:09 10° W 06:10:19 90° N 06:21:43 10° E visible
28 Jul - 08:15:11 10° W 08:23:47 64° NNW 08:39:03 10° ENE daylight
28 Jul - 10:27:55 10° W 10:38:24 34° NNW 10:53:31 10° NNE daylight
28 Jul - 12:50:43 10° NW 12:53:45 11° NW 12:56:57 10° NNW daylight
